This demonstration page uses our WeatherBlox Daily Observations layout. Learn more.

Left ArrowRight Arrow

34.02893, -84.19858

Hourly Observations for August 13, 2015

Temp ( °F °C ) Dew Point ( °F °C ) Humidity (%) Winds ( mph kmh ) Pressure ( in mb ) Visibility ( mi km ) Precip ( " mm )
12:53 am 00:53 Clear 72 22.2 63 17.2 73 73 N 3 6 29.97 1015 10 16 0.00 0.00
1:53 am 01:53 Mostly Clear 72 22.2 62 16.7 71 71 N 3 6 29.96 1015 10 16 0.00 0.00
2:53 am 02:53 Clear 70 21.1 63 17.2 79 79 N 3 6 29.96 1014 10 16 0.00 0.00
3:53 am 03:53 Mostly Cloudy 70 21.1 64 17.8 82 82 N 3 6 29.96 1014 10 16 0.00 0.00
4:53 am 04:53 Clear 70 21.1 64 17.8 82 82 N 5 7 29.96 1015 10 16 0.00 0.00
5:53 am 05:53 Clear 71 21.7 63 17.2 76 76 Calm 29.96 1015 10 16 0.00 0.00
6:53 am 06:53 Partly Cloudy 71 21.7 63 17.2 76 76 Calm 29.99 1016 10 16 0.00 0.00
7:53 am 07:53 Sunny 73 22.8 63 17.2 71 71 VRB 3 6 30.00 1016 10 16 0.00 0.00
8:53 am 08:53 Sunny 76 24.4 62 16.7 62 62 ENE 7 11 30.00 1016 10 16 0.00 0.00
9:53 am 09:53 Sunny 79 26.1 64 17.8 60 60 VRB 6 9 30.02 1017 10 16 0.00 0.00
10:53 am 10:53 Sunny 82 27.8 66 18.9 58 58 VRB 3 6 30.02 1017 10 16 0.00 0.00
11:53 am 11:53 Mostly Sunny 85 29.4 70 21.1 61 61 VRB 5 7 30.02 1017 10 16 0.00 0.00
12:53 pm 12:53 Partly Cloudy 86 30 70 21.1 59 59 VRB 5 7 30.01 1016 10 16 0.00 0.00
1:53 pm 13:53 Mostly Sunny 88 31.1 68 20 52 52 VRB 6 9 29.98 1015 10 16 0.00 0.00
2:53 pm 14:53 Mostly Sunny 87 30.6 67 19.4 51 51 E 8 13 29.97 1015 10 16 0.00 0.00
3:36 pm 15:36 Mostly Cloudy with Nearby Thunderstorms 88 31 66 19 49 49 E 8 13 29.94 1014 10 16 0.00 0.00
3:46 pm 15:46 Cloudy with Thunderstorms 84 29 66 19 55 55 VRB 5 7 29.97 1015 10 16 0.00 0.00
3:53 pm 15:53 Cloudy with Thunderstorms 85 29.4 66 18.9 53 53 ESE 8 13 29.96 1015 10 16 0.00 0.00
4:03 pm 16:03 Cloudy 84 29 64 18 51 51 ESE 5 7 29.94 1014 10 16 0.00 0.00
4:11 pm 16:11 Cloudy with Thunderstorms 86 30 66 18.9 51 51 VRB 3 6 29.97 1015 10 16 0.00 0.00
4:43 pm 16:43 Cloudy with Strong Thunderstorms 75 23.9 70 21.1 84 84 W 8 13 30.00 1016 2 2 0.10 2.54
4:46 pm 16:46 Cloudy with Strong Thunderstorms 73 23 70 21 89 89 N 16 26 30.00 1016 1 1 0.00 0.00
4:53 pm 16:53 Cloudy with Strong Thunderstorms 74 23.3 65 18.3 74 74 undefined N/A 29.99 1016 1 1 0.35 8.89
5:31 pm 17:31 Cloudy with Thunderstorms 73 22.8 71 21.7 94 94 VRB 3 6 30.03 1017 3 5 0.12 3.05
5:53 pm 17:53 Cloudy with Thunderstorms 72 22.2 71 21.7 97 97 VRB 5 7 30.01 1016 3 5 0.13 3.30
6:10 pm 18:10 Cloudy 72 22 72 22 100 100 E 3 6 30.03 1017 8 13 0.00 0.00
6:53 pm 18:53 Mostly Sunny 75 23.9 71 21.7 88 88 Calm 29.99 1016 10 16 0.00 0.03
7:53 pm 19:53 Sunny 75 23.9 72 22.2 90 90 Calm 29.99 1016 10 16 0.00 0.00
8:53 pm 20:53 Mostly Clear 73 22.8 72 22.2 96 96 Calm 30.00 1016 10 16 0.00 0.00
9:53 pm 21:53 Partly Cloudy 73 22.8 72 22.2 96 96 Calm 30.01 1016 7 11 0.00 0.00
10:53 pm 22:53 Cloudy 74 23.3 72 22.2 94 94 Calm 30.03 1017 9 14 0.00 0.00
11:53 pm 23:53 Cloudy 74 23.3 71 21.7 91 91 Calm 30.03 1017 9 14 0.00 0.00

Powered by AerisWeather